Skip Page Navigation
NASA JPL Caltech
NASA Logo - Jet Propulsion Laboratory + View the NASA Portal
+ Near-Earth Object (NEO) Program
Search JPL
JPL Home Earth Solar System Stars & Galaxies Technology
JPL Solar System Dynamics
BODIES ORBITS EPHEMERIDES TOOLS PHYSICAL DATA DISCOVERY FAQ SITE MAP
JPL Small-Body Database Browser
Search: [ help ]  
10459 Vladichaika (1978 SJ5)
Classification: Main-belt Asteroid          SPK-ID: 2010459
Ephemeris | Orbit Diagram | Orbital Elements | Physical Parameters | Discovery Circumstances ]

[ show orbit diagram ]
Orbital Elements at Epoch 2456400.5 (2013-Apr-18.0) TDB
Reference: JPL 1 (heliocentric ecliptic J2000)
 Element Value Uncertainty (1-sigma)   Units 
e .213532865044452 8.8692e-08  
a 2.391116803864755 1.7477e-08 AU
q 1.880534782079581 2.1268e-07 AU
i 5.763466137121383 8.6266e-06 deg
node 31.31662750204414 8.2012e-05 deg
peri 330.8018840833213 8.346e-05 deg
M 130.5151158042706 2.1974e-05 deg
tp 2455910.881378936544
(2011-Dec-15.38137894)
7.9304e-05 JED
period 1350.515627991932
3.70
1.4806e-05
4.054e-08
d
yr
n .2665648531111634 2.9225e-09 deg/d
Q 2.901698825649929 2.1209e-08 AU
  Orbit Determination Parameters
   # obs. used (total)      670  
   data-arc span      12602 days (34.50 yr)  
   first obs. used      1978-09-27  
   last obs. used      2013-03-29  
   planetary ephem.      DE405  
   SB-pert. ephem.      SB405-CPV-2  
   condition code      0  
   fit RMS      .51741  
   data source      ORB  
   producer      Otto Matic  
   solution date      2013-Apr-29 13:40:05  

Additional Information
 Earth MOID = .880238 AU 
 T_jup = 3.494 
[ show covariance matrix ]

Ephemeris | Orbit Diagram | Orbital Elements | Physical Parameters | Discovery Circumstances ]

Physical Parameter Table
Parameter Symbol Value Units Sigma Reference Notes
absolute magnitude H 14.5 mag n/a PDS3 (MPC 34426)  

10459 Vladichaika           Discovered 1978 Sept. 27 by L. I. Chernykh at the Crimean Astrophysical Observatory.
Vladimir Dmitrievich Chaika (b. 1948) is a Ukrainian marine architect and doctor of engineering sciences. He contributed greatly to the improvement of the economy and the development of sciences, culture and sport in Nikolaev.
NOTE: some special characters may not display properly (any characters within {} are an attempt to place the proper accent above a character)
Reference: 20070402/MPCPages.arcLast Updated: 2007-07-05

Alternate Designations
 1978 SJ5 = 1993 VN4 
Ephemeris | Orbit Diagram | Orbital Elements | Physical Parameters | Discovery Circumstances ]
ABOUT SSD CREDITS/AWARDS PRIVACY/COPYRIGHT GLOSSARY LINKS
FirstGov 2013-May-22 12:22 UT
(server date/time)  
NASA Home Page
Site Manager:   Donald K. Yeomans
Webmaster  Alan B. Chamberlin